TimeCDT,TemperatureF,Dew PointF,Humidity,Sea Level PressureIn,VisibilityMPH,Wind Direction,Wind SpeedMPH,Gust SpeedMPH,PrecipitationIn,Events,Conditions,WindDirDegrees,DateUTC
12:15 AM,71.6,66.2,83,29.75,10.0,SW,8.1,-,N/A,,Clear,230,2013-06-27 05:15:00
12:35 AM,71.6,66.2,83,29.75,10.0,SW,6.9,-,N/A,,Clear,230,2013-06-27 05:35:00
12:55 AM,69.8,66.2,88,29.75,10.0,SW,6.9,-,N/A,,Scattered Clouds,230,2013-06-27 05:55:00
1:15 AM,69.8,66.2,88,29.75,10.0,SW,9.2,-,N/A,,Mostly Cloudy,230,2013-06-27 06:15:00
1:35 AM,69.8,66.2,88,29.75,10.0,WSW,10.4,-,N/A,,Overcast,250,2013-06-27 06:35:00
1:55 AM,69.8,66.2,88,29.75,5.0,WSW,11.5,-,N/A,,Overcast,250,2013-06-27 06:55:00
2:15 AM,69.8,68.0,94,29.74,3.0,WSW,9.2,-,N/A,,Overcast,250,2013-06-27 07:15:00
2:35 AM,69.8,68.0,94,29.73,3.0,WSW,8.1,-,N/A,,Overcast,250,2013-06-27 07:35:00
2:55 AM,71.6,68.0,88,29.74,2.5,West,9.2,-,N/A,,Overcast,260,2013-06-27 07:55:00
3:15 AM,71.6,68.0,88,29.74,1.5,WSW,10.4,-,N/A,,Overcast,250,2013-06-27 08:15:00
3:35 AM,71.6,69.8,94,29.74,1.2,WSW,8.1,-,N/A,,Overcast,250,2013-06-27 08:35:00
3:55 AM,71.6,69.8,94,29.74,1.5,West,8.1,-,N/A,,Overcast,270,2013-06-27 08:55:00
4:15 AM,71.6,69.8,94,29.74,1.5,West,6.9,-,N/A,,Overcast,270,2013-06-27 09:15:00
4:35 AM,71.6,69.8,94,29.75,1.2,West,6.9,-,N/A,,Overcast,260,2013-06-27 09:35:00
4:55 AM,71.6,69.8,94,29.75,0.5,West,10.4,-,N/A,,Overcast,280,2013-06-27 09:55:00
5:15 AM,71.6,69.8,94,29.75,0.5,West,8.1,-,N/A,,Overcast,270,2013-06-27 10:15:00
5:35 AM,71.6,69.8,94,29.76,0.2,WNW,6.9,-,N/A,,Overcast,290,2013-06-27 10:35:00
5:55 AM,71.6,69.8,94,29.76,0.5,WNW,6.9,-,N/A,,Overcast,290,2013-06-27 10:55:00
6:15 AM,71.6,69.8,94,29.76,1.0,West,6.9,-,N/A,,Overcast,280,2013-06-27 11:15:00
6:35 AM,71.6,69.8,94,29.76,2.5,WNW,8.1,-,N/A,,Overcast,290,2013-06-27 11:35:00
6:55 AM,71.6,69.8,94,29.77,3.0,WNW,8.1,-,N/A,,Overcast,300,2013-06-27 11:55:00
7:15 AM,71.6,69.8,94,29.77,3.0,WNW,8.1,-,N/A,,Overcast,300,2013-06-27 12:15:00
7:35 AM,71.6,69.8,94,29.77,3.0,NW,8.1,-,N/A,,Overcast,310,2013-06-27 12:35:00
7:55 AM,71.6,69.8,94,29.77,3.0,NW,9.2,-,N/A,,Overcast,320,2013-06-27 12:55:00
8:15 AM,73.4,69.8,88,29.77,6.0,North,9.2,-,N/A,,Overcast,360,2013-06-27 13:15:00
8:35 AM,75.2,69.8,83,29.77,9.0,NNW,8.1,-,N/A,,Mostly Cloudy,340,2013-06-27 13:35:00
8:55 AM,75.2,68.0,78,29.77,10.0,NNW,10.4,-,N/A,,Partly Cloudy,340,2013-06-27 13:55:00
9:15 AM,77.0,68.0,74,29.77,10.0,WNW,8.1,-,N/A,,Scattered Clouds,300,2013-06-27 14:15:00
9:35 AM,77.0,69.8,78,29.77,10.0,NW,6.9,-,N/A,,Scattered Clouds,320,2013-06-27 14:35:00
9:55 AM,78.8,69.8,74,29.77,10.0,WNW,11.5,-,N/A,,Scattered Clouds,290,2013-06-27 14:55:00
10:15 AM,78.8,69.8,74,29.78,10.0,NW,6.9,-,N/A,,Mostly Cloudy,310,2013-06-27 15:15:00
10:35 AM,78.8,69.8,74,29.79,10.0,WNW,12.7,-,N/A,,Mostly Cloudy,300,2013-06-27 15:35:00
10:55 AM,80.6,69.8,70,29.78,10.0,NW,12.7,-,N/A,,Mostly Cloudy,310,2013-06-27 15:55:00
11:15 AM,80.6,69.8,70,29.78,10.0,NW,10.4,-,N/A,,Scattered Clouds,310,2013-06-27 16:15:00
11:35 AM,80.6,69.8,70,29.78,10.0,WNW,10.4,-,N/A,,Scattered Clouds,290,2013-06-27 16:35:00
11:55 AM,82.4,69.8,66,29.78,10.0,WNW,11.5,-,N/A,,Scattered Clouds,300,2013-06-27 16:55:00
12:15 PM,82.4,69.8,66,29.78,10.0,NW,10.4,-,N/A,,Scattered Clouds,320,2013-06-27 17:15:00
12:35 PM,82.4,69.8,66,29.79,10.0,WNW,8.1,-,N/A,,Scattered Clouds,300,2013-06-27 17:35:00
12:55 PM,84.2,69.8,62,29.78,10.0,WNW,12.7,-,N/A,,Scattered Clouds,300,2013-06-27 17:55:00
1:15 PM,84.2,69.8,62,29.78,10.0,WNW,11.5,-,N/A,,Partly Cloudy,300,2013-06-27 18:15:00
1:35 PM,84.2,69.8,62,29.78,10.0,NW,13.8,-,N/A,,Scattered Clouds,320,2013-06-27 18:35:00
1:55 PM,84.2,69.8,62,29.79,10.0,WNW,15.0,19.6,N/A,,Mostly Cloudy,290,2013-06-27 18:55:00
2:15 PM,84.2,69.8,62,29.78,10.0,West,13.8,-,N/A,,Mostly Cloudy,280,2013-06-27 19:15:00
2:35 PM,84.2,69.8,62,29.77,10.0,NW,12.7,-,N/A,,Scattered Clouds,310,2013-06-27 19:35:00
2:55 PM,86.0,71.6,62,29.78,9.0,WNW,11.5,-,N/A,,Scattered Clouds,300,2013-06-27 19:55:00
3:15 PM,84.2,71.6,66,29.77,10.0,WNW,10.4,-,N/A,,Mostly Cloudy,290,2013-06-27 20:15:00
3:35 PM,86.0,71.6,62,29.77,10.0,WNW,16.1,20.7,N/A,,Scattered Clouds,290,2013-06-27 20:35:00
3:55 PM,86.0,71.6,62,29.75,10.0,WNW,11.5,-,N/A,,Scattered Clouds,300,2013-06-27 20:55:00
4:15 PM,86.0,69.8,58,29.75,10.0,WNW,12.7,-,N/A,,Scattered Clouds,290,2013-06-27 21:15:00
4:35 PM,84.2,69.8,62,29.74,10.0,West,10.4,-,N/A,Thunderstorm,Partly Cloudy,280,2013-06-27 21:35:00
4:55 PM,82.4,71.6,70,29.76,5.0,North,15.0,-,0.09,Thunderstorm,Thunderstorm,350,2013-06-27 21:55:00
5:15 PM,75.2,68.0,78,29.74,10.0,WNW,5.8,-,0.13,Thunderstorm,Thunderstorm,290,2013-06-27 22:15:00
5:35 PM,78.8,66.2,65,29.73,10.0,WNW,3.5,-,0.13,Thunderstorm,Clear,290,2013-06-27 22:35:00
5:55 PM,80.6,69.8,70,29.73,10.0,West,4.6,-,0.13,,Clear,260,2013-06-27 22:55:00
6:15 PM,80.6,69.8,70,29.72,10.0,West,4.6,-,N/A,,Partly Cloudy,260,2013-06-27 23:15:00
6:35 PM,80.6,69.8,70,29.71,10.0,SW,5.8,-,N/A,,Partly Cloudy,230,2013-06-27 23:35:00
6:55 PM,80.6,71.6,74,29.70,10.0,SW,4.6,-,N/A,,Clear,230,2013-06-27 23:55:00
7:15 PM,78.8,71.6,78,29.70,10.0,SW,5.8,-,N/A,,Clear,220,2013-06-28 00:15:00
7:35 PM,78.8,71.6,78,29.71,10.0,SSW,3.5,-,N/A,,Clear,200,2013-06-28 00:35:00
7:55 PM,78.8,71.6,78,29.70,10.0,Calm,Calm,-,N/A,,Clear,0,2013-06-28 00:55:00
8:15 PM,78.8,71.6,78,29.70,10.0,Calm,Calm,-,N/A,,Clear,0,2013-06-28 01:15:00
8:35 PM,78.8,71.6,78,29.68,10.0,WSW,5.8,-,N/A,,Clear,250,2013-06-28 01:35:00
8:55 PM,78.8,69.8,74,29.68,10.0,West,8.1,-,N/A,,Clear,270,2013-06-28 01:55:00
9:15 PM,78.8,66.2,65,29.69,10.0,West,9.2,-,N/A,,Clear,270,2013-06-28 02:15:00
9:35 PM,78.8,66.2,65,29.69,10.0,West,9.2,-,N/A,,Partly Cloudy,270,2013-06-28 02:35:00
9:55 PM,77.0,66.2,69,29.69,10.0,West,10.4,-,N/A,,Scattered Clouds,270,2013-06-28 02:55:00
10:15 PM,77.0,66.2,69,29.68,10.0,West,9.2,-,N/A,,Scattered Clouds,280,2013-06-28 03:15:00
10:35 PM,75.2,66.2,73,29.68,10.0,WNW,6.9,-,N/A,,Scattered Clouds,290,2013-06-28 03:35:00
10:55 PM,73.4,68.0,83,29.69,10.0,West,8.1,-,N/A,,Mostly Cloudy,280,2013-06-28 03:55:00
11:15 PM,73.4,66.2,78,29.69,10.0,West,9.2,-,N/A,,Scattered Clouds,280,2013-06-28 04:15:00
11:35 PM,73.4,66.2,78,29.68,10.0,West,8.1,-,N/A,,Clear,280,2013-06-28 04:35:00
11:55 PM,71.6,66.2,83,29.68,10.0,West,8.1,-,N/A,,Scattered Clouds,280,2013-06-28 04:55:00